Location: Campillo
(40.8621°N, 4.2488°W)
Time: 01:24:59
(UTC+00:00)

USA 308 - Pass Details

Date: 27 September 2021
Orbit: 566 x 573 km, 54.0° (Epoch: 23 September)

Event Time Altitude Azimuth Distance (km) Brightness Sun altitude
Rises 19:24:20 0° 314° (NW) 2,771 7.4 -15.7°
Reaches altitude 10° 19:27:03 10° 331° (NNW) 1,873 6.1 -16.2°
Maximum altitude 19:30:18 21° 20° (NNE) 1,318 4.7 -16.8°
Enters shadow 19:31:43 18° 47° (NE) 1,440 4.6 -17.0°
